sat.trackr.live / text

‹ back to catalog

STARLINK-32922

NORAD 62926 · 2025-027V

PAYLOAD ACTIVE UNKNOWN

§ Identity

Operator
Country
US
Launch date
2025-02-08
Launch site
AFETR
Launch vehicle
Mass (kg)
RCS (m²)

Purposes: comms

External: N2YO · Heavens-Above · Gunter

§ Orbital elements

Epoch: 2026-09-21T22:26:17.712672Z

Period
94.27 min
Inclination
43.0055°
Eccentricity
0.0002289
Mean motion
15.27583757 rev/d
Perigee alt
481.5 km
Apogee alt
484.6 km
Semi-major
6,861.2 km
B*
3.5912e-4
RAAN
100.7344°
Arg perigee
256.6566°
Mean anomaly
103.4031°
Rev number
9,155

§ Raw data

STARLINK-329221 62926U 25027V   26264.93492723  .00009634  00000+0  35912-3 0  99942 62926  43.0055 100.7344 0002289 256.6566 103.4031 15.27583757 91552

JSON: /api/v1/satellites/62926 · /tle

For live sub-satellite position, see the globe view (requires WebGL).

§ Visibility from observer

Set your observer location to see the next 7 days of passes ≥ 10°. The values pass through the URL so the page stays shareable.

No JS? Fill the form by hand. The geolocation button needs JavaScript.